RH
23 23 23 23 23 23 23 24 24 23 23 23 24 23 22 19 16 15 14 12 11 10 10 10 9 9 10 10 9 9 9 10 10 9 9 9 12 18 23 27 33 47
24 24 24 23 22 22 21 22 23 23 22 22 24 24 21 19 17 16 14 13 12 10 9 9 9 9 9 9 9 8 8 8 9 10 9 10 9 10 15 21 23 31
25 24 24 24 23 22 21 21 22 23 23 23 24 25 23 19 17 16 15 13 12 11 10 9 9 9 9 9 8 7 7 7 8 9 9 9 9 8 10 13 17 22
26 25 25 24 24 23 22 22 23 24 23 24 25 25 23 20 18 17 15 14 12 10 10 9 9 9 8 8 8 7 7 7 6 7 8 9 9 8 8 9 12 14
26 26 26 25 25 24 24 24 24 24 24 25 26 25 22 20 18 16 14 13 12 11 10 9 9 9 8 8 8 7 7 7 6 5 6 7 8 8 8 6 7 9
27 27 27 27 26 26 25 25 24 24 25 25 26 23 21 19 17 16 14 12 11 11 11 10 9 9 8 8 7 7 7 6 5 4 5 6 7 8 8 6 5 6
30 31 30 29 29 28 27 26 25 25 26 27 25 22 20 18 16 14 13 12 12 11 11 10 10 9 8 8 7 7 7 6 5 4 4 5 5 7 8 8 6 4
34 34 34 33 32 30 28 27 26 27 28 27 24 21 19 17 15 14 13 12 12 11 11 10 9 9 8 8 7 7 6 6 5 4 3 4 4 6 6 7 8 5
36 36 36 36 33 31 30 28 28 29 30 27 23 20 18 16 15 14 13 13 11 11 11 10 9 9 8 8 7 7 7 6 5 4 4 3 3 4 5 6 7 7
38 38 37 36 34 33 31 29 29 30 30 26 22 19 18 16 15 14 12 12 11 10 10 9 9 8 8 8 8 7 7 6 5 4 3 3 3 3 4 5 6 7
38 38 36 35 35 34 33 31 30 32 31 26 22 20 18 16 15 14 13 12 11 10 10 9 8 8 8 8 7 7 7 6 5 4 3 3 4 3 3 4 5 7
38 37 35 35 35 35 34 32 33 33 31 26 22 20 19 17 14 13 12 12 11 10 9 9 8 7 8 8 7 7 6 6 5 4 4 4 3 4 3 3 5 6
36 34 33 35 36 35 34 34 35 35 31 25 22 20 18 15 14 13 12 11 11 10 9 8 8 7 7 7 7 7 6 6 6 4 4 4 4 4 3 3 4 5
35 33 34 36 36 35 35 36 37 35 30 24 21 19 17 15 14 13 12 12 11 9 8 8 8 7 8 7 7 7 6 5 6 5 4 5 5 4 3 3 3 4
34 34 34 35 35 36 37 37 37 33 28 23 21 19 17 16 15 14 13 12 10 9 8 8 8 7 7 8 7 7 7 6 6 6 5 5 5 4 3 3 4 4
35 34 33 32 34 36 37 36 35 31 25 22 21 20 19 17 16 15 14 12 11 10 8 8 8 7 7 8 8 8 7 7 7 6 5 5 5 5 3 3 3 4
37 34 31 31 33 36 37 36 33 28 24 23 23 22 21 18 16 16 14 13 11 10 9 8 7 7 7 7 9 9 8 8 7 6 6 6 5 4 3 3 3 3
38 33 30 31 33 36 37 35 30 25 24 26 26 24 21 18 17 15 14 13 12 10 9 8 7 7 7 8 9 10 9 9 9 8 7 6 5 4 3 2 2 3
38 33 31 32 34 37 37 32 28 26 27 28 28 24 20 18 16 15 14 13 12 11 9 8 8 7 7 9 10 11 11 10 10 9 8 6 5 3 2 2 2 2
38 34 34 35 37 38 36 32 30 30 30 29 28 23 19 17 16 15 15 13 11 11 9 8 8 7 7 9 11 11 11 11 11 11 9 6 4 3 1 1 2 2
40 39 38 39 40 39 37 36 35 34 32 30 26 22 19 17 17 16 14 13 12 10 9 8 8 7 8 10 12 13 12 12 13 12 10 7 6 5 4 2 3 3
44 43 42 41 41 41 40 39 37 34 33 30 25 21 19 18 18 17 15 14 12 9 8 8 8 8 9 10 13 14 14 14 15 14 11 8 8 11 12 9 8 6
46 43 41 40 41 43 42 40 37 36 33 29 24 21 19 19 18 16 15 14 11 10 9 8 8 8 8 10 13 15 16 17 17 15 12 10 15 23 26 23 17 12
43 40 38 40 44 46 45 42 39 37 32 26 23 21 19 19 18 16 15 13 11 10 9 7 8 9 8 9 12 15 18 19 18 16 14 14 24 35 38 36 30 22
40 40 42 46 48 49 49 47 42 36 29 24 23 21 20 19 18 15 14 12 11 11 9 7 8 8 7 9 12 16 20 20 19 18 17 20 32 43 45 46 44 37
45 47 50 52 52 53 54 50 42 33 27 24 23 22 21 19 17 15 13 11 11 11 9 7 8 7 5 6 12 18 22 21 20 20 22 30 41 49 55 61 59 53
Wind_Speed
47 46 46 47 47 47 47 48 48 48 48 48 49 49 50 52 53 54 54 54 52 51 49 48 48 48 47 47 48 49 51 53 55 56 56 57 60 66 72 74 74 76
48 47 47 47 47 47 47 48 48 48 49 49 49 50 52 53 55 56 57 57 56 55 53 51 49 49 49 49 49 49 51 52 54 56 58 58 60 65 70 73 73 75
49 48 48 48 48 48 48 48 48 49 49 50 50 51 53 55 57 58 59 60 60 58 56 54 52 51 50 50 49 49 50 52 54 55 57 59 61 64 68 72 73 75
50 50 49 49 49 49 49 49 49 49 49 50 51 52 54 57 59 60 61 62 62 61 59 57 55 53 52 51 50 49 49 50 52 55 57 60 62 63 67 71 75 76
51 50 50 50 50 50 51 51 51 51 50 50 51 53 56 58 61 62 63 63 63 63 62 60 58 56 54 53 51 49 48 49 51 53 56 60 61 64 67 71 75 78
52 52 51 51 51 51 52 52 52 51 51 51 52 54 57 60 62 64 64 64 64 64 63 62 60 59 57 55 53 50 49 49 50 51 54 58 61 63 66 71 74 78
53 53 52 52 52 52 53 53 52 52 52 53 54 56 59 61 63 65 66 66 65 65 64 63 62 61 59 57 55 53 50 49 49 49 50 55 61 63 66 69 73 76
54 54 53 53 53 53 53 53 53 53 53 55 57 59 61 63 65 66 66 66 65 65 64 64 64 63 62 60 58 56 52 50 49 47 48 53 59 63 65 68 71 74
55 55 54 54 54 54 54 53 53 54 55 57 60 61 63 64 65 66 66 66 65 65 65 64 64 64 63 62 61 58 55 52 50 46 46 50 56 61 64 67 70 73
56 56 56 55 55 55 55 54 54 55 57 59 62 64 65 66 66 66 67 66 66 65 65 64 64 64 63 63 61 60 57 54 52 47 44 47 52 57 63 67 69 73
57 57 57 56 56 56 56 55 55 56 59 61 64 66 67 67 67 67 67 67 66 66 66 65 64 64 64 64 62 60 58 55 52 47 43 43 47 54 61 66 68 72
57 57 57 56 56 57 57 57 57 58 61 63 65 67 68 68 68 68 68 68 67 67 67 66 66 65 64 65 63 60 58 56 53 48 42 40 43 50 57 63 67 71
58 57 56 56 56 57 57 58 59 60 63 65 66 68 69 70 70 70 70 70 69 68 68 68 67 66 65 65 64 61 58 55 52 48 42 39 40 46 53 59 65 70
58 57 56 56 57 57 58 59 61 63 65 67 69 70 72 73 73 74 74 73 72 71 69 69 68 67 67 66 65 62 58 53 50 47 42 38 38 43 49 55 62 67
58 57 57 57 57 58 59 61 62 65 67 69 71 73 74 76 77 77 78 77 75 74 72 70 69 69 69 68 65 62 57 52 48 45 42 38 37 41 45 51 58 64
58 58 58 57 58 59 61 63 65 67 68 70 73 75 77 79 80 80 81 81 79 77 75 73 71 70 69 68 65 60 56 51 45 43 41 38 36 38 42 47 53 60
60 60 59 59 59 61 63 65 67 68 70 72 75 77 79 81 82 83 84 84 83 81 78 75 73 72 70 68 62 57 53 48 43 41 40 38 36 37 40 43 49 55
60 60 60 60 60 62 66 68 68 69 71 74 77 79 82 83 84 85 85 86 85 84 81 77 74 73 71 66 59 54 50 45 41 39 39 37 36 37 38 40 45 51
61 61 61 61 62 64 67 68 69 71 73 75 79 81 83 84 85 86 87 87 87 85 83 79 75 73 70 64 57 51 46 41 38 38 37 37 37 36 36 38 42 47
62 62 62 63 64 66 67 68 69 72 74 77 80 83 84 86 87 88 88 89 88 86 83 79 76 73 67 61 54 48 43 38 36 36 36 36 37 35 35 36 39 43
62 63 63 65 66 67 68 69 70 73 76 79 81 84 85 87 89 90 90 90 89 86 83 79 75 70 64 57 51 46 40 35 34 34 34 35 35 34 33 35 37 40
63 64 65 66 67 68 69 71 72 74 77 81 83 85 86 88 89 90 90 90 90 88 83 78 73 67 60 53 48 44 38 33 32 33 33 34 34 32 32 33 35 38
64 64 65 66 67 69 71 73 74 77 79 82 85 87 87 88 89 90 90 90 90 87 83 77 70 64 57 50 46 41 35 31 31 32 33 33 32 30 30 31 33 36
64 64 65 67 69 71 73 75 77 79 82 84 87 89 89 89 90 90 90 90 89 87 82 75 67 61 54 48 44 39 33 30 31 31 32 32 31 30 29 29 30 33
65 65 66 69 71 73 76 78 80 82 84 86 89 90 91 91 90 90 89 89 87 84 79 71 63 57 51 45 41 37 32 30 30 31 32 31 30 29 28 27 27 28
66 67 69 71 73 75 78 81 83 85 86 88 91 92 92 91 90 89 87 86 82 79 74 67 58 52 47 43 38 35 31 29 30 31 31 30 30 29 28 27 26 24
Wind_Direction
305 304 303 301 300 299 299 298 298 298 299 299 300 302 303 304 304 305 305 304 303 301 298 295 292 290 288 285 282 279 275 271 268 264 258 251 247 244 243 241 240 240
304 303 302 301 300 299 298 298 297 298 299 299 300 302 303 304 305 306 306 305 304 303 301 298 294 292 290 288 284 281 276 272 267 263 259 253 248 244 243 241 239 239
303 302 302 301 301 300 300 299 299 299 300 300 301 303 305 306 306 307 306 306 305 304 302 300 297 294 293 291 288 284 279 275 270 264 258 253 248 244 243 241 239 238
302 303 302 302 302 302 302 302 302 301 301 302 303 304 306 307 308 307 307 306 306 305 304 301 299 297 295 293 291 287 283 279 273 266 259 253 248 243 241 240 238 237
303 303 303 304 304 304 304 304 303 303 303 303 304 306 307 308 308 308 307 307 307 306 305 303 302 300 298 297 294 291 288 283 277 269 260 254 248 243 240 238 237 237
305 304 304 305 305 305 305 305 304 304 303 304 305 307 308 308 308 308 308 307 307 307 306 305 304 302 301 300 298 295 291 287 281 272 262 254 249 244 240 237 236 236
306 306 306 306 306 306 306 305 305 305 305 305 307 308 308 308 308 308 308 307 307 307 307 306 305 304 303 303 301 298 295 291 285 276 263 254 249 245 241 237 235 234
308 307 307 307 307 306 306 306 305 305 306 307 308 309 309 309 309 308 308 308 308 307 307 307 306 306 306 305 303 301 299 295 289 279 265 254 248 245 241 237 234 233
308 308 307 307 307 307 306 306 306 306 307 308 309 309 310 310 309 308 308 308 308 308 307 307 307 307 307 306 305 303 301 297 292 283 268 256 248 244 241 237 234 231
308 308 307 307 307 307 306 306 307 307 308 309 309 310 310 310 310 309 309 308 308 308 308 308 307 307 307 306 305 304 302 299 294 286 273 259 250 244 241 238 234 230
308 307 307 307 307 307 307 307 307 308 309 309 310 310 311 311 310 310 309 309 309 310 310 309 309 308 308 307 305 304 303 299 295 288 276 263 253 245 241 238 235 231
307 307 307 307 307 306 307 307 307 308 308 309 310 310 310 310 310 310 310 311 311 311 312 311 311 310 309 308 306 305 303 299 295 288 277 265 255 247 242 238 235 232
307 307 307 307 306 306 306 306 307 308 308 308 309 310 310 310 311 311 312 312 313 313 313 313 313 312 311 309 307 305 302 299 295 288 278 266 257 249 243 238 235 232
306 307 307 306 305 305 305 306 307 307 308 309 309 310 311 312 313 313 314 314 314 315 315 315 315 314 313 311 309 305 302 298 293 286 277 267 257 250 244 238 235 232
306 306 306 305 305 305 305 305 306 307 308 309 310 312 313 314 315 315 315 315 316 316 316 316 316 315 314 312 309 305 301 297 291 284 276 267 258 251 245 239 235 232
306 305 304 304 304 304 304 305 306 307 308 310 312 314 315 316 316 316 316 317 317 316 317 317 317 316 315 313 309 304 299 295 289 281 274 267 258 251 245 239 235 232
304 303 303 303 304 304 305 305 306 307 309 312 314 315 316 316 316 317 317 317 317 317 317 318 318 317 315 312 308 302 298 293 287 278 271 265 257 250 244 239 234 232
303 302 302 303 304 305 305 305 307 309 311 314 315 316 316 316 316 317 317 317 317 317 318 318 318 317 315 311 306 301 296 291 283 275 269 263 255 248 243 239 234 231
303 302 303 304 304 305 305 306 308 311 313 315 315 315 315 315 316 317 317 317 316 317 317 318 319 318 314 309 304 300 294 288 278 271 266 261 254 246 240 238 235 232
303 303 303 304 305 305 305 307 310 312 314 314 314 314 315 315 316 316 316 316 316 316 317 319 319 317 313 308 303 299 293 285 275 268 263 258 252 246 239 236 234 232
303 304 304 304 304 305 306 308 311 312 313 314 314 314 315 316 316 316 316 316 316 316 317 319 319 316 311 306 303 298 292 282 272 264 259 254 250 245 239 236 234 232
304 304 303 304 304 306 308 309 311 312 313 313 314 314 315 315 315 315 315 316 316 316 317 319 318 315 310 306 302 297 290 279 268 261 255 249 245 242 239 237 235 232
303 303 303 304 305 307 308 310 311 313 313 314 314 314 314 314 314 314 315 315 315 315 316 318 317 313 309 305 301 295 287 275 264 257 251 244 239 238 237 237 236 233
302 303 304 305 307 308 309 310 312 313 313 313 313 313 313 314 314 315 315 315 314 314 315 316 315 311 308 304 299 292 284 271 260 252 246 239 234 233 232 232 234 234
303 304 306 307 307 308 310 311 312 312 313 313 313 313 313 314 314 315 314 314 313 313 313 313 313 309 306 302 296 289 279 267 254 246 240 234 228 226 225 225 228 232
305 305 306 307 308 309 310 310 311 312 313 313 312 312 313 313 313 313 313 312 311 310 310 311 310 307 303 299 292 284 274 261 248 239 233 227 220 218 219 220 221 225